Floyd, NM

4:13 AM MDT on August 27, 2016 (GMT -0600)
Melrose Gunnery Range

Weather History for K4MR - March, 2014

Change the Weather History Date:

Tuesday, March 4, 2014

  Actual Average (KCVS) Record (KCVS)
Temperature  
Mean Temperature 47 °F -  
Max Temperature 64 °F 57 °F 81 °F (2009)
Min Temperature 30 °F 30 °F 14 °F (2002)
Degree Days  
Heating Degree Days 18    
Moisture  
Dew Point 24 °F    
Average Humidity 44    
Maximum Humidity 68    
Minimum Humidity 21    
Precipitation  
Precipitation 0.00 in - - ()
Sea Level Pressure  
Sea Level Pressure 29.90 in    
Wind  
Wind Speed 11 mph (SW)    
Max Wind Speed 21 mph    
Max Gust Speed 29 mph    
Visibility 12 miles    
Events      
Averages and records for this station are not official NWS values.
T = Trace of Precipitation, MM = Missing Value Source: NWS Daily Summary

Daily Weather History Graph

Daily Weather History Graph

Search for Another Location

Airport or City:

Trip Planner

Search our weather history database for the weather conditions in past years. The results will help you decide how hot, cold, wet, or windy it might be!

Date:

Astronomy

Mar. 04, 2014 Rise Set
Actual Time 6:20 AM MST 5:54 PM MST
Civil Twilight 5:55 AM MST 6:19 PM MST
Nautical Twilight 5:26 AM MST 6:48 PM MST
Astronomical Twilight 4:57 AM MST 7:17 PM MST
Moon 8:18 AM MST (3/4) 9:51 PM MST (3/4)
Length of Visible Light 12h 24m
Length of Day
11h 33m
Waxing Crescent, 15% of the Moon is Illuminated
Mar 4
Waxing Crescent
Mar 8
First Quarter
Mar 16
Full
Mar 23
Last Quarter
Mar 30
New

Hourly Weather History & Observations

Time (MST) Temp. Windchill Dew Point Humidity Pressure Visibility Wind Dir Wind Speed Gust Speed Precip Events Conditions
12:56 AM 32.5 °F 29.3 °F 23.0 °F 68% 30.06 in 12.0 mi Variable 3.5 mph - N/A   Clear
1:56 AM 32.9 °F 24.7 °F 19.8 °F 59% 30.05 in 12.0 mi SSW 10.4 mph 24.2 mph N/A   Clear
2:56 AM 30.6 °F 17.9 °F 19.9 °F 65% 30.00 in 12.0 mi SW 20.7 mph 28.8 mph N/A   Clear
3:56 AM 30.2 °F 19.3 °F 18.7 °F 62% 30.00 in 12.0 mi SSW 15.0 mph 23.0 mph N/A   Clear
4:56 AM 30.7 °F 22.6 °F 19.4 °F 63% 30.01 in 12.0 mi SSW 9.2 mph 16.1 mph N/A   Clear
5:56 AM 31.1 °F 23.1 °F 20.8 °F 66% 30.00 in 12.0 mi SW 9.2 mph - N/A   Clear
6:56 AM 31.6 °F 23.7 °F 20.8 °F 64% 29.99 in 12.0 mi SW 9.2 mph - N/A   Clear
7:56 AM 37.9 °F 30.0 °F 23.7 °F 57% 30.01 in 12.0 mi WSW 12.7 mph - N/A   Clear
8:56 AM 41.9 °F 35.9 °F 26.6 °F 55% 30.01 in 12.0 mi West 10.4 mph - N/A   Clear
9:56 AM 46.6 °F - 27.9 °F 48% 29.99 in 12.0 mi SW 9.2 mph - N/A   Clear
10:56 AM 51.8 °F - 28.4 °F 41% 29.96 in 12.0 mi WSW 10.4 mph 16.1 mph N/A   Clear
11:56 AM 57.0 °F - 26.2 °F 31% 29.91 in 12.0 mi West 11.5 mph - N/A   Clear
12:56 PM 61.3 °F - 22.8 °F 23% 29.86 in 12.0 mi West 6.9 mph - N/A   Clear
1:56 PM 63.1 °F - 22.5 °F 21% 29.82 in 12.0 mi West 8.1 mph - N/A   Clear
2:56 PM 64.0 °F - 26.2 °F 24% 29.80 in 12.0 mi SW 9.2 mph 17.3 mph N/A   Clear
3:56 PM 63.5 °F - 26.2 °F 24% 29.80 in 12.0 mi SSW 15.0 mph 20.7 mph N/A   Clear
4:56 PM 61.3 °F - 25.5 °F 26% 29.80 in 12.0 mi SSW 16.1 mph 20.7 mph N/A   Clear
5:56 PM 57.6 °F - 25.3 °F 29% 29.80 in 12.0 mi South 12.7 mph - N/A   Mostly Cloudy
6:56 PM 54.5 °F - 26.2 °F 34% 29.82 in 12.0 mi SSW 11.5 mph - N/A   Mostly Cloudy
7:56 PM 54.0 °F - 26.4 °F 35% 29.82 in 12.0 mi SSW 12.7 mph - N/A   Mostly Cloudy
8:56 PM 53.6 °F - 26.8 °F 36% 29.80 in 12.0 mi SSW 15.0 mph 21.9 mph N/A   Mostly Cloudy
9:56 PM 52.0 °F - 27.3 °F 39% 29.80 in 12.0 mi SSW 13.8 mph 19.6 mph N/A   Mostly Cloudy
10:56 PM 51.1 °F - 28.0 °F 41% 29.79 in 12.0 mi SSW 10.4 mph - N/A   Mostly Cloudy
11:56 PM 51.3 °F - 27.1 °F 39% 29.78 in 12.0 mi SW 15.0 mph - N/A   Scattered Clouds